When you browse on this site, cookies collect data to enhance your experience and personalize the content and advertising you see.
Visit our Privacy Policy to learn more. By continuing to use the site, you agree to this use of cookies and data.
  • Em Portugal
  • Lista de países
  • Para 7 dias
  • Temperatura da água
  • Mapas de satélite
  • Mapa do tempo
  • Widgets de tempo
  • user-avatar
    Iniciar Sessão

    Previsão horária em Galechnik

    Hoje, 20 Julho, Sábado

    Tempo Temperatura Precipitação Vento Pressão Humidade
    00:00 +16°C° 0.2 mm 1 m/s 732 mmHg 91%
    01:00 +15°C° 0.2 mm 1 m/s 732 mmHg 92%
    02:00 +15°C° 0.4 mm 1 m/s 732 mmHg 93%
    03:00 +15°C° 0.4 mm 1 m/s 732 mmHg 93%
    04:00 +14°C° 0.4 mm 1 m/s 732 mmHg 94%
    05:00 +15°C° 0 mm 1 m/s 733 mmHg 91%
    06:00 +16°C° 0 mm 1 m/s 733 mmHg 89%
    07:00 +18°C° 0 mm 1 m/s 733 mmHg 87%
    08:00 +19°C° 0 mm 2 m/s 733 mmHg 82%
    09:00 +20°C° 0 mm 2 m/s 734 mmHg 77%
    10:00 +23°C° 0 mm 2 m/s 734 mmHg 72%
    11:00 +24°C° 0 mm 2 m/s 734 mmHg 70%
    12:00 +25°C° 0 mm 3 m/s 734 mmHg 67%
    13:00 +25°C° 0 mm 3 m/s 734 mmHg 64%
    14:00 +26°C° 0 mm 3 m/s 734 mmHg 63%
    15:00 +26°C° 0 mm 3 m/s 734 mmHg 61%
    16:00 +26°C° 0 mm 3 m/s 734 mmHg 59%
    17:00 +25°C° 0 mm 3 m/s 734 mmHg 65%
    18:00 +24°C° 0 mm 2 m/s 734 mmHg 70%
    19:00 +24°C° 0 mm 2 m/s 734 mmHg 75%
    20:00 +21°C° 0 mm 2 m/s 734 mmHg 80%
    21:00 +19°C° 0 mm 2 m/s 734 mmHg 84%
    22:00 +18°C° 0 mm 2 m/s 734 mmHg 89%
    23:00 +17°C° 0 mm 2 m/s 734 mmHg 90%

    Amanhã, 21 Julho, Domingo

    Tempo Temperatura Precipitação Vento Pressão Humidade
    00:00 +16°C° 0 mm 2 m/s 734 mmHg 92%
    01:00 +16°C° 0 mm 2 m/s 734 mmHg 93%
    02:00 +15°C° 0 mm 2 m/s 734 mmHg 94%
    03:00 +15°C° 0 mm 2 m/s 734 mmHg 95%
    04:00 +14°C° 0 mm 2 m/s 734 mmHg 96%
    05:00 +15°C° 0 mm 2 m/s 734 mmHg 92%
    06:00 +16°C° 0 mm 2 m/s 734 mmHg 88%
    07:00 +17°C° 0 mm 2 m/s 734 mmHg 85%
    08:00 +19°C° 0 mm 2 m/s 734 mmHg 79%
    09:00 +20°C° 0 mm 3 m/s 734 mmHg 74%
    10:00 +21°C° 0 mm 3 m/s 734 mmHg 69%
    11:00 +22°C° 0.1 mm 3 m/s 734 mmHg 67%
    12:00 +22°C° 0.1 mm 4 m/s 734 mmHg 65%
    13:00 +23°C° 0.1 mm 4 m/s 734 mmHg 63%
    14:00 +23°C° 0.1 mm 4 m/s 733 mmHg 63%
    15:00 +23°C° 0.1 mm 4 m/s 733 mmHg 62%
    16:00 +23°C° 0.1 mm 4 m/s 733 mmHg 62%
    17:00 +22°C° 0.3 mm 3 m/s 733 mmHg 68%
    18:00 +21°C° 0.3 mm 3 m/s 733 mmHg 75%
    19:00 +20°C° 0.3 mm 3 m/s 733 mmHg 81%
    20:00 +18°C° 0 mm 2 m/s 733 mmHg 85%
    21:00 +17°C° 0 mm 2 m/s 733 mmHg 88%
    22:00 +16°C° 0 mm 2 m/s 733 mmHg 92%
    23:00 +15°C° 0 mm 2 m/s 732 mmHg 93%

    Depois de amanhã, 22 Julho, Segunda-feira

    Tempo Temperatura Precipitação Vento Pressão Humidade
    00:00 +15°C° 0 mm 2 m/s 732 mmHg 94%
    01:00 +14°C° 0 mm 2 m/s 732 mmHg 96%
    02:00 +14°C° 0 mm 2 m/s 732 mmHg 96%
    03:00 +14°C° 0 mm 2 m/s 732 mmHg 96%
    04:00 +13°C° 0 mm 2 m/s 732 mmHg 97%
    05:00 +14°C° 0 mm 2 m/s 732 mmHg 95%
    06:00 +15°C° 0 mm 2 m/s 732 mmHg 93%
    07:00 +16°C° 0 mm 2 m/s 732 mmHg 91%
    08:00 +18°C° 0.1 mm 2 m/s 732 mmHg 86%
    09:00 +19°C° 0.1 mm 3 m/s 732 mmHg 81%
    10:00 +20°C° 0.1 mm 3 m/s 732 mmHg 75%
    11:00 +21°C° 1 mm 3 m/s 731 mmHg 76%
    12:00 +21°C° 1 mm 3 m/s 731 mmHg 77%
    13:00 +21°C° 1 mm 3 m/s 731 mmHg 77%
    14:00 +21°C° 1 mm 3 m/s 731 mmHg 78%
    15:00 +21°C° 1 mm 3 m/s 731 mmHg 78%
    16:00 +21°C° 1 mm 3 m/s 731 mmHg 78%
    17:00 +20°C° 0.8 mm 3 m/s 731 mmHg 81%
    18:00 +19°C° 0.8 mm 3 m/s 731 mmHg 85%
    19:00 +18°C° 0.8 mm 3 m/s 731 mmHg 89%
    20:00 +17°C° 0 mm 3 m/s 731 mmHg 91%
    21:00 +16°C° 0 mm 3 m/s 731 mmHg 93%
    22:00 +14°C° 0 mm 2 m/s 731 mmHg 95%
    23:00 +14°C° 0 mm 2 m/s 731 mmHg 95%

    23 Julho, Terça-feira

    Tempo Temperatura Precipitação Vento Pressão Humidade
    00:00 +13°C° 0 mm 2 m/s 731 mmHg 96%
    01:00 +13°C° 0 mm 2 m/s 731 mmHg 96%
    02:00 +13°C° 0 mm 1 m/s 731 mmHg 96%
    03:00 +12°C° 0 mm 1 m/s 731 mmHg 96%
    04:00 +12°C° 0 mm 1 m/s 731 mmHg 96%
    05:00 +13°C° 0 mm 1 m/s 731 mmHg 94%
    06:00 +14°C° 0 mm 1 m/s 732 mmHg 91%
    07:00 +15°C° 0 mm 1 m/s 732 mmHg 89%
    08:00 +18°C° 0 mm 1 m/s 732 mmHg 84%
    09:00 +18°C° 0 mm 2 m/s 732 mmHg 78%
    10:00 +19°C° 0 mm 2 m/s 732 mmHg 73%
    11:00 +19°C° 0.2 mm 2 m/s 733 mmHg 72%
    12:00 +20°C° 0.2 mm 2 m/s 733 mmHg 71%
    13:00 +21°C° 0.2 mm 2 m/s 733 mmHg 70%
    14:00 +20°C° 0.8 mm 2 m/s 733 mmHg 74%
    15:00 +20°C° 0.8 mm 2 m/s 733 mmHg 79%
    16:00 +20°C° 0.8 mm 3 m/s 733 mmHg 83%
    17:00 +20°C° 0.5 mm 2 m/s 733 mmHg 86%
    18:00 +19°C° 0.5 mm 2 m/s 733 mmHg 89%
    19:00 +19°C° 0.5 mm 2 m/s 733 mmHg 91%
    20:00 +18°C° 0.1 mm 2 m/s 733 mmHg 92%
    21:00 +17°C° 0.1 mm 2 m/s 733 mmHg 93%
    22:00 +16°C° 0.1 mm 2 m/s 733 mmHg 94%
    23:00 +16°C° 0 mm 2 m/s 734 mmHg 94%

    24 Julho, Quarta-feira

    Tempo Temperatura Precipitação Vento Pressão Humidade
    00:00 +15°C° 0 mm 2 m/s 734 mmHg 95%
    01:00 +15°C° 0 mm 2 m/s 734 mmHg 95%
    02:00 +15°C° 0 mm 2 m/s 734 mmHg 95%
    03:00 +14°C° 0 mm 2 m/s 734 mmHg 96%
    04:00 +14°C° 0 mm 1 m/s 734 mmHg 96%
    05:00 +15°C° 0 mm 2 m/s 735 mmHg 95%
    06:00 +16°C° 0 mm 2 m/s 735 mmHg 94%
    07:00 +17°C° 0 mm 2 m/s 735 mmHg 93%
    08:00 +19°C° 0 mm 2 m/s 735 mmHg 85%
    09:00 +20°C° 0 mm 2 m/s 736 mmHg 77%
    10:00 +23°C° 0 mm 2 m/s 736 mmHg 70%
    11:00 +24°C° 0 mm 2 m/s 736 mmHg 64%
    12:00 +25°C° 0 mm 2 m/s 736 mmHg 58%
    13:00 +26°C° 0 mm 2 m/s 737 mmHg 52%
    14:00 +27°C° 0 mm 2 m/s 737 mmHg 51%
    15:00 +27°C° 0 mm 2 m/s 737 mmHg 50%
    16:00 +27°C° 0 mm 2 m/s 737 mmHg 50%
    17:00 +26°C° 0.1 mm 2 m/s 737 mmHg 58%
    18:00 +25°C° 0.1 mm 1 m/s 737 mmHg 67%
    19:00 +23°C° 0.1 mm 1 m/s 737 mmHg 76%
    20:00 +22°C° 0.1 mm 1 m/s 737 mmHg 79%
    21:00 +20°C° 0.1 mm 1 m/s 737 mmHg 82%
    22:00 +17°C° 0.1 mm 0 m/s 737 mmHg 84%
    23:00 +16°C° 0 mm 0 m/s 738 mmHg 85%

    25 Julho, Quinta-feira

    Tempo Temperatura Precipitação Vento Pressão Humidade
    00:00 +16°C° 0 mm 0 m/s 738 mmHg 86%
    01:00 +15°C° 0 mm 0 m/s 738 mmHg 86%
    02:00 +15°C° 0 mm 0 m/s 738 mmHg 87%
    03:00 +15°C° 0 mm 0 m/s 738 mmHg 88%
    04:00 +14°C° 0 mm 0 m/s 738 mmHg 89%
    05:00 +16°C° 0 mm 0 m/s 738 mmHg 86%
    06:00 +19°C° 0 mm 1 m/s 739 mmHg 84%
    07:00 +20°C° 0 mm 1 m/s 739 mmHg 82%
    08:00 +22°C° 0 mm 1 m/s 739 mmHg 76%
    09:00 +23°C° 0 mm 1 m/s 739 mmHg 71%
    10:00 +25°C° 0 mm 1 m/s 739 mmHg 65%
    11:00 +26°C° 0.1 mm 1 m/s 739 mmHg 61%
    12:00 +26°C° 0.1 mm 1 m/s 739 mmHg 57%
    13:00 +27°C° 0.1 mm 1 m/s 739 mmHg 52%
    14:00 +27°C° 0 mm 1 m/s 739 mmHg 52%
    15:00 +27°C° 0 mm 1 m/s 739 mmHg 52%
    16:00 +27°C° 0 mm 1 m/s 738 mmHg 52%
    17:00 +26°C° 0.1 mm 1 m/s 738 mmHg 59%
    18:00 +25°C° 0.1 mm 1 m/s 738 mmHg 66%
    19:00 +24°C° 0.1 mm 1 m/s 738 mmHg 72%
    20:00 +21°C° 0 mm 0 m/s 738 mmHg 76%
    21:00 +19°C° 0 mm 0 m/s 738 mmHg 79%
    22:00 +18°C° 0 mm 0 m/s 738 mmHg 82%
    23:00 +17°C° 0 mm 0 m/s 738 mmHg 84%
    Mostrar mais